Time,TemperatureF,DewpointF,PressureIn,WindDirection,WindDirectionDegrees,WindSpeedMPH,WindSpeedGustMPH,Humidity,HourlyPrecipIn,Conditions,Clouds,dailyrainin,SoftwareType,DateUTC
2013-02-02 00:04:00,24.8,19.0,30.05,WSW,248,2.0,2.0,78,0.00,,,0.00,WUHU216HW,2013-02-02 06:04:00,
2013-02-02 00:09:00,24.8,19.0,30.04,WSW,248,2.5,2.5,78,0.00,,,0.00,WUHU216HW,2013-02-02 06:09:00,
2013-02-02 00:15:00,25.4,19.4,30.05,WSW,248,2.2,2.5,78,0.00,,,0.00,WUHU216HW,2013-02-02 06:15:00,
2013-02-02 00:20:00,25.7,19.5,30.04,WSW,248,2.5,2.7,77,0.00,,,0.00,WUHU216HW,2013-02-02 06:20:00,
2013-02-02 00:25:00,25.7,19.5,30.04,WSW,248,2.0,2.7,77,0.00,,,0.00,WUHU216HW,2013-02-02 06:25:00,
2013-02-02 00:33:00,25.7,19.8,30.04,WSW,248,2.5,2.5,78,0.00,,,0.00,WUHU216HW,2013-02-02 06:33:00,
2013-02-02 00:38:00,26.1,20.2,30.04,West,270,2.5,2.7,78,0.00,,,0.00,WUHU216HW,2013-02-02 06:38:00,
2013-02-02 00:43:00,26.6,20.6,30.04,West,270,2.0,2.7,78,0.00,,,0.00,WUHU216HW,2013-02-02 06:43:00,
2013-02-02 00:48:00,27.0,21.0,30.04,West,270,2.5,2.7,78,0.00,,,0.00,WUHU216HW,2013-02-02 06:48:00,
2013-02-02 00:53:00,27.2,21.2,30.04,West,270,2.2,2.7,78,0.00,,,0.00,WUHU216HW,2013-02-02 06:53:00,
2013-02-02 00:58:00,27.4,21.1,30.04,West,270,2.5,2.5,77,0.00,,,0.00,WUHU216HW,2013-02-02 06:58:00,
2013-02-02 01:03:00,27.2,20.9,30.04,West,270,2.2,2.5,77,0.00,,,0.00,WUHU216HW,2013-02-02 07:03:00,
2013-02-02 01:08:00,27.2,21.2,30.04,West,270,2.2,2.5,78,0.00,,,0.00,WUHU216HW,2013-02-02 07:08:00,
2013-02-02 01:13:00,27.0,20.7,30.04,West,270,1.8,2.2,77,0.00,,,0.00,WUHU216HW,2013-02-02 07:13:00,
2013-02-02 01:18:00,27.0,21.0,30.05,West,270,2.0,2.2,78,0.00,,,0.00,WUHU216HW,2013-02-02 07:18:00,
2013-02-02 01:23:00,27.0,21.0,30.05,West,270,2.5,2.5,78,0.00,,,0.00,WUHU216HW,2013-02-02 07:23:00,
2013-02-02 01:28:00,26.8,20.8,30.04,West,270,1.3,2.5,78,0.00,,,0.00,WUHU216HW,2013-02-02 07:28:00,
2013-02-02 01:33:00,26.6,20.6,30.05,West,270,0.7,2.5,78,0.00,,,0.00,WUHU216HW,2013-02-02 07:33:00,
2013-02-02 01:38:00,26.6,20.6,30.05,West,270,0.4,0.9,78,0.00,,,0.00,WUHU216HW,2013-02-02 07:38:00,
2013-02-02 01:44:00,26.6,20.6,30.05,West,270,0.4,0.9,78,0.00,,,0.00,WUHU216HW,2013-02-02 07:44:00,
2013-02-02 01:49:00,26.6,20.6,30.04,West,270,0.2,0.4,78,0.00,,,0.00,WUHU216HW,2013-02-02 07:49:00,
2013-02-02 01:54:00,26.6,20.6,30.04,West,270,1.8,1.8,78,0.00,,,0.00,WUHU216HW,2013-02-02 07:54:00,
2013-02-02 01:59:00,26.6,20.6,30.05,West,270,1.1,1.8,78,0.00,,,0.00,WUHU216HW,2013-02-02 07:59:00,
2013-02-02 02:05:00,26.6,20.6,30.05,West,270,1.1,1.8,78,0.00,,,0.00,WUHU216HW,2013-02-02 08:05:00,
2013-02-02 02:11:00,27.0,21.0,30.06,West,270,1.8,1.8,78,0.00,,,0.00,WUHU216HW,2013-02-02 08:11:00,
2013-02-02 02:16:00,27.0,21.0,30.06,West,270,1.1,1.8,78,0.00,,,0.00,WUHU216HW,2013-02-02 08:16:00,
2013-02-02 02:21:00,27.0,21.0,30.06,West,270,1.3,1.3,78,0.00,,,0.00,WUHU216HW,2013-02-02 08:21:00,
2013-02-02 02:26:00,27.0,21.0,30.06,West,270,1.3,1.3,78,0.00,,,0.00,WUHU216HW,2013-02-02 08:26:00,
2013-02-02 02:31:00,27.0,21.0,30.07,West,270,1.3,1.3,78,0.00,,,0.00,WUHU216HW,2013-02-02 08:31:00,
2013-02-02 02:37:00,28.1,21.8,30.07,West,270,1.8,2.5,77,0.00,,,0.00,WUHU216HW,2013-02-02 08:37:00,
2013-02-02 02:42:00,28.1,21.8,30.07,West,270,1.8,2.5,77,0.00,,,0.00,WUHU216HW,2013-02-02 08:42:00,
2013-02-02 02:47:00,28.4,22.2,30.08,West,270,2.2,2.5,77,0.00,,,0.00,WUHU216HW,2013-02-02 08:47:00,
2013-02-02 02:52:00,28.6,22.3,30.08,West,270,2.5,2.9,77,0.00,,,0.00,WUHU216HW,2013-02-02 08:52:00,
2013-02-02 02:57:00,28.8,22.5,30.08,West,270,1.8,2.9,77,0.00,,,0.00,WUHU216HW,2013-02-02 08:57:00,
2013-02-02 03:02:00,28.8,22.5,30.08,West,270,1.1,1.8,77,0.00,,,0.00,WUHU216HW,2013-02-02 09:02:00,
2013-02-02 03:07:00,28.8,22.5,30.08,West,270,1.6,1.8,77,0.00,,,0.00,WUHU216HW,2013-02-02 09:07:00,
2013-02-02 03:13:00,28.8,22.5,30.08,West,270,1.6,1.6,77,0.00,,,0.00,WUHU216HW,2013-02-02 09:13:00,
2013-02-02 03:34:00,29.2,22.9,30.07,West,270,2.5,2.5,77,0.00,,,0.00,WUHU216HW,2013-02-02 09:34:00,
2013-02-02 03:39:00,29.2,22.9,30.07,West,270,2.5,2.5,77,0.00,,,0.00,WUHU216HW,2013-02-02 09:39:00,
2013-02-02 04:00:00,29.2,22.9,30.07,West,270,2.0,2.0,77,0.00,,,0.00,WUHU216HW,2013-02-02 10:00:00,
2013-02-02 04:05:00,29.2,22.9,30.07,West,270,2.0,2.0,77,0.00,,,0.00,WUHU216HW,2013-02-02 10:05:00,
2013-02-02 04:10:00,29.2,22.9,30.07,West,270,2.0,2.0,77,0.00,,,0.00,WUHU216HW,2013-02-02 10:10:00,
2013-02-02 04:15:00,29.2,22.9,30.07,West,270,2.0,2.0,77,0.00,,,0.00,WUHU216HW,2013-02-02 10:15:00,
2013-02-02 04:39:00,29.2,22.5,30.08,WNW,293,1.1,1.1,76,0.00,,,0.00,WUHU216HW,2013-02-02 10:39:00,
2013-02-02 04:44:00,29.2,22.5,30.08,WNW,293,1.1,1.1,76,0.00,,,0.00,WUHU216HW,2013-02-02 10:44:00,
2013-02-02 05:00:00,29.2,22.5,30.08,WNW,293,0.4,0.4,76,0.00,,,0.00,WUHU216HW,2013-02-02 11:00:00,
2013-02-02 05:05:00,29.0,22.3,30.08,WNW,293,0.4,0.7,76,0.00,,,0.00,WUHU216HW,2013-02-02 11:05:00,
2013-02-02 05:10:00,28.8,22.5,30.08,WNW,293,0.4,0.7,77,0.00,,,0.00,WUHU216HW,2013-02-02 11:10:00,
2013-02-02 05:15:00,28.8,22.5,30.08,WNW,293,0.0,0.4,77,0.00,,,0.00,WUHU216HW,2013-02-02 11:15:00,
2013-02-02 05:20:00,28.8,22.5,30.09,WNW,293,0.4,0.4,77,0.00,,,0.00,WUHU216HW,2013-02-02 11:20:00,
2013-02-02 05:25:00,28.8,22.5,30.09,WNW,293,0.0,0.4,77,0.00,,,0.00,WUHU216HW,2013-02-02 11:25:00,
2013-02-02 05:30:00,28.8,22.5,30.09,WNW,293,0.0,0.4,77,0.00,,,0.00,WUHU216HW,2013-02-02 11:30:00,
2013-02-02 05:35:00,28.8,22.5,30.09,WNW,293,0.0,0.0,77,0.00,,,0.00,WUHU216HW,2013-02-02 11:35:00,
2013-02-02 05:40:00,28.8,22.5,30.08,WNW,293,0.0,0.0,77,0.00,,,0.00,WUHU216HW,2013-02-02 11:40:00,
2013-02-02 05:45:00,28.8,22.5,30.09,WNW,293,0.0,0.0,77,0.00,,,0.00,WUHU216HW,2013-02-02 11:45:00,
2013-02-02 05:50:00,28.8,22.5,30.09,WNW,293,0.0,0.0,77,0.00,,,0.00,WUHU216HW,2013-02-02 11:50:00,
2013-02-02 06:00:00,28.6,22.3,30.10,WNW,293,0.0,0.0,77,0.00,,,0.00,WUHU216HW,2013-02-02 12:00:00,
2013-02-02 06:05:00,28.6,22.3,30.10,WNW,293,0.0,0.0,77,0.00,,,0.00,WUHU216HW,2013-02-02 12:05:00,
2013-02-02 06:10:00,28.6,22.3,30.10,WNW,293,0.0,0.0,77,0.00,,,0.00,WUHU216HW,2013-02-02 12:10:00,
2013-02-02 06:15:00,28.6,22.3,30.10,WNW,293,0.0,0.0,77,0.00,,,0.00,WUHU216HW,2013-02-02 12:15:00,
2013-02-02 06:20:00,28.8,22.5,30.11,WNW,293,0.0,0.0,77,0.00,,,0.00,WUHU216HW,2013-02-02 12:20:00,
2013-02-02 06:25:00,28.8,22.5,30.10,WNW,293,0.0,0.0,77,0.00,,,0.00,WUHU216HW,2013-02-02 12:25:00,
2013-02-02 06:31:00,28.8,22.5,30.11,WNW,293,0.0,0.0,77,0.00,,,0.00,WUHU216HW,2013-02-02 12:31:00,
2013-02-02 06:36:00,29.0,22.7,30.11,WNW,293,0.0,0.0,77,0.00,,,0.00,WUHU216HW,2013-02-02 12:36:00,
2013-02-02 06:41:00,29.0,22.7,30.11,WNW,293,0.0,0.7,77,0.00,,,0.00,WUHU216HW,2013-02-02 12:41:00,
2013-02-02 06:46:00,29.0,22.7,30.11,North,0,0.0,0.7,77,0.00,,,0.00,WUHU216HW,2013-02-02 12:46:00,
2013-02-02 06:52:00,29.0,22.7,30.11,North,0,0.0,0.4,77,0.00,,,0.00,WUHU216HW,2013-02-02 12:52:00,
2013-02-02 06:57:00,29.0,22.7,30.11,North,0,0.2,0.4,77,0.00,,,0.00,WUHU216HW,2013-02-02 12:57:00,
2013-02-02 07:02:00,29.0,22.7,30.11,North,0,0.0,0.2,77,0.00,,,0.00,WUHU216HW,2013-02-02 13:02:00,
2013-02-02 07:07:00,28.8,22.5,30.11,North,0,1.8,1.8,77,0.00,,,0.00,WUHU216HW,2013-02-02 13:07:00,
2013-02-02 07:12:00,28.8,22.1,30.11,North,0,2.5,2.5,76,0.00,,,0.00,WUHU216HW,2013-02-02 13:12:00,
2013-02-02 07:17:00,28.8,22.1,30.11,North,0,0.4,2.5,76,0.00,,,0.00,WUHU216HW,2013-02-02 13:17:00,
2013-02-02 07:22:00,28.6,22.0,30.12,North,0,0.4,2.5,76,0.00,,,0.00,WUHU216HW,2013-02-02 13:22:00,
2013-02-02 07:27:00,28.4,21.8,30.11,North,0,0.4,1.1,76,0.00,,,0.00,WUHU216HW,2013-02-02 13:27:00,
2013-02-02 07:32:00,28.4,21.8,30.12,North,0,1.3,1.6,76,0.00,,,0.00,WUHU216HW,2013-02-02 13:32:00,
2013-02-02 07:37:00,28.1,21.8,30.12,NNE,23,3.1,3.1,77,0.00,,,0.00,WUHU216HW,2013-02-02 13:37:00,
2013-02-02 07:42:00,27.9,21.6,30.12,NNE,23,2.2,3.4,77,0.00,,,0.00,WUHU216HW,2013-02-02 13:42:00,
2013-02-02 07:47:00,27.7,21.4,30.12,NNE,23,1.1,3.4,77,0.00,,,0.00,WUHU216HW,2013-02-02 13:47:00,
2013-02-02 07:53:00,27.5,21.3,30.13,North,0,0.7,2.5,77,0.00,,,0.00,WUHU216HW,2013-02-02 13:53:00,
2013-02-02 07:58:00,27.4,21.1,30.13,NNE,23,1.3,1.3,77,0.00,,,0.00,WUHU216HW,2013-02-02 13:58:00,
2013-02-02 08:03:00,27.2,20.9,30.13,North,0,1.1,1.3,77,0.00,,,0.00,WUHU216HW,2013-02-02 14:03:00,
2013-02-02 08:08:00,27.0,20.7,30.13,North,0,1.8,1.8,77,0.00,,,0.00,WUHU216HW,2013-02-02 14:08:00,
2013-02-02 08:13:00,27.0,20.7,30.13,North,0,1.1,1.8,77,0.00,,,0.00,WUHU216HW,2013-02-02 14:13:00,
2013-02-02 08:18:00,27.0,20.7,30.13,North,0,2.5,2.5,77,0.00,,,0.00,WUHU216HW,2013-02-02 14:18:00,
2013-02-02 08:23:00,27.0,20.7,30.13,North,0,0.4,2.5,77,0.00,,,0.00,WUHU216HW,2013-02-02 14:23:00,
2013-02-02 08:28:00,27.0,20.7,30.13,North,0,0.2,2.5,77,0.00,,,0.00,WUHU216HW,2013-02-02 14:28:00,
2013-02-02 08:33:00,27.4,21.1,30.13,North,0,0.9,0.9,77,0.00,,,0.00,WUHU216HW,2013-02-02 14:33:00,
2013-02-02 08:38:00,27.4,21.1,30.14,North,0,0.7,1.1,77,0.00,,,0.00,WUHU216HW,2013-02-02 14:38:00,
2013-02-02 08:43:00,27.2,20.9,30.14,North,0,1.1,1.1,77,0.00,,,0.00,WUHU216HW,2013-02-02 14:43:00,
2013-02-02 08:48:00,27.2,20.9,30.14,North,0,1.1,1.1,77,0.00,,,0.00,WUHU216HW,2013-02-02 14:48:00,
2013-02-02 08:53:00,27.4,21.1,30.14,North,0,1.6,1.6,77,0.00,,,0.00,WUHU216HW,2013-02-02 14:53:00,
2013-02-02 08:58:00,27.4,21.1,30.15,North,0,1.1,1.6,77,0.00,,,0.00,WUHU216HW,2013-02-02 14:58:00,
2013-02-02 09:04:00,27.4,20.7,30.15,North,0,0.7,1.3,76,0.00,,,0.00,WUHU216HW,2013-02-02 15:04:00,
2013-02-02 09:08:00,27.7,21.1,30.16,North,0,1.1,1.1,76,0.00,,,0.00,WUHU216HW,2013-02-02 15:08:00,
2013-02-02 09:14:00,27.7,21.1,30.15,North,0,1.1,2.5,76,0.00,,,0.00,WUHU216HW,2013-02-02 15:14:00,
2013-02-02 09:19:00,27.7,21.1,30.15,North,0,2.2,2.5,76,0.00,,,0.00,WUHU216HW,2013-02-02 15:19:00,
2013-02-02 09:24:00,27.9,21.2,30.15,North,0,0.4,2.2,76,0.00,,,0.00,WUHU216HW,2013-02-02 15:24:00,
2013-02-02 09:29:00,27.9,21.2,30.15,North,0,0.4,1.1,76,0.00,,,0.00,WUHU216HW,2013-02-02 15:29:00,
2013-02-02 09:34:00,27.9,21.2,30.15,North,0,0.4,0.4,76,0.00,,,0.00,WUHU216HW,2013-02-02 15:34:00,
2013-02-02 09:55:00,29.5,22.5,30.14,ENE,68,4.5,4.5,75,0.00,,,0.00,WUHU216HW,2013-02-02 15:55:00,
2013-02-02 10:00:00,29.3,22.7,30.13,NE,45,3.1,4.5,76,0.00,,,0.00,WUHU216HW,2013-02-02 16:00:00,
2013-02-02 10:05:00,29.2,22.5,30.14,NNE,23,3.1,3.1,76,0.00,,,0.00,WUHU216HW,2013-02-02 16:05:00,
2013-02-02 10:10:00,29.5,22.9,30.14,NNE,23,3.1,3.1,76,0.00,,,0.00,WUHU216HW,2013-02-02 16:10:00,
2013-02-02 10:15:00,29.7,22.7,30.14,NE,45,3.1,3.4,75,0.00,,,0.00,WUHU216HW,2013-02-02 16:15:00,
2013-02-02 10:20:00,29.3,22.4,30.15,North,0,1.3,3.4,75,0.00,,,0.00,WUHU216HW,2013-02-02 16:20:00,
2013-02-02 10:25:00,29.3,22.4,30.15,NNE,23,0.9,3.4,75,0.00,,,0.00,WUHU216HW,2013-02-02 16:25:00,
2013-02-02 10:30:00,30.6,23.6,30.15,North,0,2.5,3.4,75,0.00,,,0.00,WUHU216HW,2013-02-02 16:30:00,
2013-02-02 10:35:00,30.8,23.4,30.15,North,0,1.8,2.5,74,0.00,,,0.00,WUHU216HW,2013-02-02 16:35:00,
2013-02-02 10:40:00,30.8,23.1,30.15,North,0,0.4,2.5,73,0.00,,,0.00,WUHU216HW,2013-02-02 16:40:00,
2013-02-02 10:45:00,30.4,22.8,30.16,North,0,0.4,2.2,73,0.00,,,0.00,WUHU216HW,2013-02-02 16:45:00,
2013-02-02 10:50:00,30.6,23.0,30.15,NNE,23,0.7,2.2,73,0.00,,,0.00,WUHU216HW,2013-02-02 16:50:00,
2013-02-02 10:55:00,30.2,22.6,30.15,NE,45,2.0,2.0,73,0.00,,,0.00,WUHU216HW,2013-02-02 16:55:00,
2013-02-02 11:01:00,31.1,23.5,30.15,NNE,23,1.6,2.0,73,0.00,,,0.00,WUHU216HW,2013-02-02 17:01:00,
2013-02-02 11:06:00,31.3,23.3,30.15,NNE,23,2.5,2.5,72,0.00,,,0.00,WUHU216HW,2013-02-02 17:06:00,
2013-02-02 11:11:00,31.1,22.9,30.15,NNE,23,2.2,2.5,71,0.00,,,0.00,WUHU216HW,2013-02-02 17:11:00,
2013-02-02 11:16:00,30.6,22.3,30.15,NE,45,1.8,2.7,71,0.00,,,0.00,WUHU216HW,2013-02-02 17:16:00,
2013-02-02 11:21:00,30.6,22.6,30.15,ENE,68,1.1,2.7,72,0.00,,,0.00,WUHU216HW,2013-02-02 17:21:00,
2013-02-02 11:26:00,30.8,22.8,30.15,NE,45,0.2,2.5,72,0.00,,,0.00,WUHU216HW,2013-02-02 17:26:00,
2013-02-02 11:31:00,31.1,23.1,30.15,NE,45,0.0,2.5,72,0.00,,,0.00,WUHU216HW,2013-02-02 17:31:00,
2013-02-02 11:36:00,31.3,22.7,30.16,ENE,68,0.4,0.4,70,0.00,,,0.00,WUHU216HW,2013-02-02 17:36:00,
2013-02-02 11:41:00,31.9,23.6,30.15,NNE,23,0.4,1.1,71,0.00,,,0.00,WUHU216HW,2013-02-02 17:41:00,
2013-02-02 11:46:00,32.0,23.4,30.14,ESE,113,1.1,2.2,70,0.00,,,0.00,WUHU216HW,2013-02-02 17:46:00,
2013-02-02 11:51:00,31.7,23.0,30.14,ESE,113,0.9,2.2,70,0.00,,,0.00,WUHU216HW,2013-02-02 17:51:00,
2013-02-02 11:56:00,31.3,22.7,30.13,ESE,113,0.7,1.8,70,0.00,,,0.00,WUHU216HW,2013-02-02 17:56:00,
2013-02-02 12:01:00,31.9,23.2,30.13,ESE,113,0.9,1.3,70,0.00,,,0.00,WUHU216HW,2013-02-02 18:01:00,
2013-02-02 12:06:00,32.0,23.8,30.14,SSE,158,0.2,1.3,71,0.00,,,0.00,WUHU216HW,2013-02-02 18:06:00,
2013-02-02 12:11:00,33.5,25.0,30.14,SSE,158,0.4,1.1,71,0.00,,,0.00,WUHU216HW,2013-02-02 18:11:00,
2013-02-02 12:16:00,34.9,26.1,30.13,ESE,113,0.0,1.1,70,0.00,,,0.00,WUHU216HW,2013-02-02 18:16:00,
2013-02-02 12:21:00,34.9,25.7,30.14,ESE,113,0.2,1.1,69,0.00,,,0.00,WUHU216HW,2013-02-02 18:21:00,
2013-02-02 12:27:00,36.2,27.7,30.13,SSW,203,1.8,1.8,71,0.00,,,0.00,WUHU216HW,2013-02-02 18:27:00,
2013-02-02 12:32:00,37.3,28.1,30.13,SSW,203,2.2,2.5,69,0.00,,,0.00,WUHU216HW,2013-02-02 18:32:00,
2013-02-02 12:38:00,38.5,28.8,30.13,SSW,203,1.8,2.7,68,0.00,,,0.00,WUHU216HW,2013-02-02 18:38:00,
2013-02-02 12:43:00,38.7,29.0,30.12,SSW,203,1.1,3.4,68,0.00,,,0.00,WUHU216HW,2013-02-02 18:43:00,
2013-02-02 12:48:00,39.1,29.0,30.12,South,180,1.1,3.4,67,0.00,,,0.00,WUHU216HW,2013-02-02 18:48:00,
2013-02-02 12:53:00,38.9,28.5,30.11,SW,225,2.7,3.4,66,0.00,,,0.00,WUHU216HW,2013-02-02 18:53:00,
2013-02-02 13:00:00,39.6,29.4,30.11,South,180,2.7,4.5,67,0.00,,,0.00,WUHU216HW,2013-02-02 19:00:00,
2013-02-02 13:05:00,39.1,28.2,30.11,SSW,203,2.2,5.4,65,0.00,,,0.00,WUHU216HW,2013-02-02 19:05:00,
2013-02-02 13:10:00,39.2,28.7,30.11,SSE,158,2.2,5.4,66,0.00,,,0.00,WUHU216HW,2013-02-02 19:10:00,
2013-02-02 13:15:00,39.1,28.5,30.11,SSW,203,2.0,3.4,66,0.00,,,0.00,WUHU216HW,2013-02-02 19:15:00,
2013-02-02 13:20:00,38.9,28.5,30.10,SSE,158,0.2,3.4,66,0.00,,,0.00,WUHU216HW,2013-02-02 19:20:00,
2013-02-02 13:25:00,38.3,28.3,30.08,SE,135,2.2,4.5,67,0.00,,,0.00,WUHU216HW,2013-02-02 19:25:00,
2013-02-02 13:30:00,37.6,27.6,30.09,South,180,0.9,4.5,67,0.00,,,0.00,WUHU216HW,2013-02-02 19:30:00,
2013-02-02 13:35:00,37.6,28.0,30.10,South,180,1.1,4.3,68,0.00,,,0.00,WUHU216HW,2013-02-02 19:35:00,
2013-02-02 13:40:00,37.8,27.8,30.10,SW,225,2.5,4.9,67,0.00,,,0.00,WUHU216HW,2013-02-02 19:40:00,
2013-02-02 13:45:00,38.0,28.4,30.09,SSW,203,0.4,4.9,68,0.00,,,0.00,WUHU216HW,2013-02-02 19:45:00,
2013-02-02 13:50:00,38.2,28.9,30.09,SSW,203,4.7,4.7,69,0.00,,,0.00,WUHU216HW,2013-02-02 19:50:00,
2013-02-02 13:55:00,38.5,29.3,30.09,SSE,158,4.0,4.7,69,0.00,,,0.00,WUHU216HW,2013-02-02 19:55:00,
2013-02-02 14:01:00,38.7,29.3,30.09,South,180,6.5,6.5,69,0.00,,,0.00,WUHU216HW,2013-02-02 20:01:00,
2013-02-02 14:06:00,38.7,29.3,30.08,SSE,158,3.6,6.5,69,0.00,,,0.00,WUHU216HW,2013-02-02 20:06:00,
2013-02-02 14:12:00,38.9,29.5,30.08,SSE,158,2.5,4.5,69,0.00,,,0.00,WUHU216HW,2013-02-02 20:12:00,
2013-02-02 14:17:00,39.1,29.7,30.07,South,180,1.8,4.5,69,0.00,,,0.00,WUHU216HW,2013-02-02 20:17:00,
2013-02-02 14:22:00,39.1,29.7,30.07,South,180,1.8,3.4,69,0.00,,,0.00,WUHU216HW,2013-02-02 20:22:00,
2013-02-02 14:46:00,39.6,30.3,30.06,South,180,6.3,6.3,69,0.00,,,0.00,WUHU216HW,2013-02-02 20:46:00,
2013-02-02 14:51:00,39.6,30.3,30.05,SSW,203,8.1,8.1,69,0.00,,,0.00,WUHU216HW,2013-02-02 20:51:00,
2013-02-02 14:56:00,39.4,30.4,30.05,SSE,158,5.4,8.1,70,0.00,,,0.00,WUHU216HW,2013-02-02 20:56:00,
2013-02-02 15:01:00,39.4,30.4,30.05,South,180,3.4,5.4,70,0.00,,,0.00,WUHU216HW,2013-02-02 21:01:00,
2013-02-02 15:06:00,39.2,30.2,30.05,SSE,158,2.0,5.4,70,0.00,,,0.00,WUHU216HW,2013-02-02 21:06:00,
2013-02-02 15:11:00,39.1,30.4,30.05,SSW,203,4.0,4.0,71,0.00,,,0.00,WUHU216HW,2013-02-02 21:11:00,
2013-02-02 15:16:00,39.1,30.4,30.05,SSW,203,5.6,5.6,71,0.00,,,0.00,WUHU216HW,2013-02-02 21:16:00,
2013-02-02 15:21:00,39.2,30.6,30.05,SSW,203,4.7,5.6,71,0.00,,,0.00,WUHU216HW,2013-02-02 21:21:00,
2013-02-02 15:26:00,39.4,30.8,30.04,South,180,4.0,5.8,71,0.00,,,0.00,WUHU216HW,2013-02-02 21:26:00,
2013-02-02 15:31:00,39.1,30.4,30.04,South,180,2.2,5.8,71,0.00,,,0.00,WUHU216HW,2013-02-02 21:31:00,
2013-02-02 15:37:00,38.5,30.0,30.04,South,180,3.4,4.7,71,0.00,,,0.00,WUHU216HW,2013-02-02 21:37:00,
2013-02-02 15:42:00,38.2,30.0,30.04,South,180,4.0,4.7,72,0.00,,,0.00,WUHU216HW,2013-02-02 21:42:00,
2013-02-02 15:47:00,38.2,30.0,30.03,SSW,203,4.0,4.0,72,0.00,,,0.00,WUHU216HW,2013-02-02 21:47:00,
2013-02-02 15:52:00,38.2,30.0,30.03,South,180,3.6,4.7,72,0.00,,,0.00,WUHU216HW,2013-02-02 21:52:00,
2013-02-02 15:57:00,38.2,30.0,30.03,South,180,3.6,4.7,72,0.00,,,0.00,WUHU216HW,2013-02-02 21:57:00,
2013-02-02 16:02:00,38.3,30.4,30.02,South,180,3.8,3.8,73,0.00,,,0.00,WUHU216HW,2013-02-02 22:02:00,
2013-02-02 16:07:00,38.5,30.6,30.02,SSE,158,1.8,3.8,73,0.00,,,0.00,WUHU216HW,2013-02-02 22:07:00,
2013-02-02 16:12:00,38.7,30.8,30.02,South,180,2.5,2.5,73,0.00,,,0.00,WUHU216HW,2013-02-02 22:12:00,
2013-02-02 16:17:00,38.7,30.8,30.02,SSW,203,4.0,4.0,73,0.00,,,0.00,WUHU216HW,2013-02-02 22:17:00,
2013-02-02 16:22:00,38.9,31.0,30.01,South,180,1.8,4.0,73,0.00,,,0.00,WUHU216HW,2013-02-02 22:22:00,
2013-02-02 16:27:00,39.1,31.2,30.02,South,180,0.0,4.0,73,0.00,,,0.00,WUHU216HW,2013-02-02 22:27:00,
2013-02-02 16:32:00,39.1,31.2,30.01,South,180,1.1,1.1,73,0.00,,,0.00,WUHU216HW,2013-02-02 22:32:00,
2013-02-02 16:37:00,38.9,31.0,30.01,SSE,158,0.4,1.8,73,0.00,,,0.00,WUHU216HW,2013-02-02 22:37:00,
2013-02-02 16:42:00,38.5,30.6,30.01,SSW,203,4.0,4.0,73,0.00,,,0.00,WUHU216HW,2013-02-02 22:42:00,
2013-02-02 16:48:00,38.7,30.8,30.02,SSW,203,1.8,4.0,73,0.00,,,0.00,WUHU216HW,2013-02-02 22:48:00,
2013-02-02 16:53:00,38.7,30.8,30.02,SSW,203,1.3,4.0,73,0.00,,,0.00,WUHU216HW,2013-02-02 22:53:00,
2013-02-02 16:58:00,38.7,30.8,30.01,SSW,203,2.0,2.0,73,0.00,,,0.00,WUHU216HW,2013-02-02 22:58:00,
2013-02-02 17:03:00,38.7,31.2,30.01,SSW,203,1.6,2.0,74,0.00,,,0.00,WUHU216HW,2013-02-02 23:03:00,
2013-02-02 17:08:00,38.7,31.2,30.00,SSW,203,1.8,2.0,74,0.00,,,0.00,WUHU216HW,2013-02-02 23:08:00,
2013-02-02 17:14:00,38.5,31.0,30.00,SSW,203,2.0,2.0,74,0.00,,,0.00,WUHU216HW,2013-02-02 23:14:00,
2013-02-02 17:20:00,38.5,31.0,30.00,South,180,1.8,2.0,74,0.00,,,0.00,WUHU216HW,2013-02-02 23:20:00,
2013-02-02 17:25:00,38.3,30.8,30.00,SW,225,2.5,2.5,74,0.00,,,0.00,WUHU216HW,2013-02-02 23:25:00,
2013-02-02 17:30:00,38.0,30.4,30.01,SW,225,0.0,2.5,74,0.00,,,0.00,WUHU216HW,2013-02-02 23:30:00,
2013-02-02 17:35:00,38.0,30.4,30.01,SW,225,0.4,2.0,74,0.00,,,0.00,WUHU216HW,2013-02-02 23:35:00,
2013-02-02 17:40:00,37.8,30.2,30.01,SW,225,0.9,0.9,74,0.00,,,0.00,WUHU216HW,2013-02-02 23:40:00,
2013-02-02 17:45:00,38.2,30.6,30.00,SW,225,1.1,1.1,74,0.00,,,0.00,WUHU216HW,2013-02-02 23:45:00,
2013-02-02 17:50:00,38.3,30.8,30.00,SW,225,1.3,1.3,74,0.00,,,0.00,WUHU216HW,2013-02-02 23:50:00,
2013-02-02 17:55:00,38.2,31.0,30.00,WSW,248,1.8,1.8,75,0.00,,,0.00,WUHU216HW,2013-02-02 23:55:00,
2013-02-02 18:00:00,38.3,30.8,30.01,WSW,248,1.3,1.8,74,0.00,,,0.00,WUHU216HW,2013-02-03 00:00:00,
2013-02-02 18:05:00,38.5,31.0,30.01,WSW,248,2.5,2.5,74,0.00,,,0.00,WUHU216HW,2013-02-03 00:05:00,
2013-02-02 18:10:00,38.5,31.0,30.01,WSW,248,2.5,2.5,74,0.00,,,0.00,WUHU216HW,2013-02-03 00:10:00,
2013-02-02 18:32:00,42.5,32.3,30.02,West,270,4.7,4.7,67,0.00,,,0.00,WUHU216HW,2013-02-03 00:32:00,
2013-02-02 18:37:00,42.5,32.3,30.03,West,270,4.0,4.7,67,0.00,,,0.00,WUHU216HW,2013-02-03 00:37:00,
2013-02-02 18:42:00,42.3,32.1,30.03,West,270,2.5,4.5,67,0.00,,,0.00,WUHU216HW,2013-02-03 00:42:00,
2013-02-02 18:47:00,42.5,32.3,30.03,WNW,293,2.7,4.0,67,0.00,,,0.00,WUHU216HW,2013-02-03 00:47:00,
2013-02-02 18:52:00,42.8,32.2,30.04,WNW,293,2.5,2.7,66,0.00,,,0.00,WUHU216HW,2013-02-03 00:52:00,
2013-02-02 18:57:00,43.0,32.4,30.04,WNW,293,2.2,4.0,66,0.00,,,0.00,WUHU216HW,2013-02-03 00:57:00,
2013-02-02 19:02:00,42.8,32.2,30.05,WNW,293,3.4,4.0,66,0.00,,,0.00,WUHU216HW,2013-02-03 01:02:00,
2013-02-02 19:07:00,43.2,32.6,30.06,NW,315,1.8,3.4,66,0.00,,,0.00,WUHU216HW,2013-02-03 01:07:00,
2013-02-02 19:12:00,42.8,33.0,30.07,NW,315,3.8,4.0,68,0.00,,,0.00,WUHU216HW,2013-02-03 01:12:00,
2013-02-02 19:17:00,42.3,33.0,30.06,SSW,203,1.8,4.0,69,0.00,,,0.00,WUHU216HW,2013-02-03 01:17:00,
2013-02-02 19:22:00,41.6,32.6,30.06,WNW,293,2.0,3.8,70,0.00,,,0.00,WUHU216HW,2013-02-03 01:22:00,
2013-02-02 19:27:00,41.2,32.6,30.06,WNW,293,2.2,2.2,71,0.00,,,0.00,WUHU216HW,2013-02-03 01:27:00,
2013-02-02 19:33:00,40.9,32.2,30.06,WNW,293,1.3,2.2,71,0.00,,,0.00,WUHU216HW,2013-02-03 01:33:00,
2013-02-02 19:38:00,40.7,32.1,30.06,WNW,293,0.9,2.2,71,0.00,,,0.00,WUHU216HW,2013-02-03 01:38:00,
2013-02-02 19:43:00,40.5,31.9,30.06,WNW,293,1.8,2.0,71,0.00,,,0.00,WUHU216HW,2013-02-03 01:43:00,
2013-02-02 19:48:00,40.3,31.7,30.06,WNW,293,2.7,2.7,71,0.00,,,0.00,WUHU216HW,2013-02-03 01:48:00,
2013-02-02 19:53:00,40.0,31.3,30.05,WNW,293,1.6,2.7,71,0.00,,,0.00,WUHU216HW,2013-02-03 01:53:00,
2013-02-02 19:58:00,40.0,31.3,30.05,WNW,293,1.6,2.7,71,0.00,,,0.00,WUHU216HW,2013-02-03 01:58:00,
2013-02-02 20:03:00,39.4,30.8,30.06,WNW,293,2.2,2.2,71,0.00,,,0.00,WUHU216HW,2013-02-03 02:03:00,
2013-02-02 20:08:00,39.6,31.0,30.06,WNW,293,2.0,2.2,71,0.00,,,0.00,WUHU216HW,2013-02-03 02:08:00,
2013-02-02 20:13:00,39.6,31.0,30.06,WNW,293,2.0,2.2,71,0.00,,,0.00,WUHU216HW,2013-02-03 02:13:00,
2013-02-02 20:18:00,39.6,31.0,30.06,WNW,293,1.8,2.0,71,0.00,,,0.00,WUHU216HW,2013-02-03 02:18:00,
2013-02-02 20:23:00,39.6,31.0,30.06,West,270,2.2,2.2,71,0.00,,,0.00,WUHU216HW,2013-02-03 02:23:00,
2013-02-02 20:28:00,39.6,31.0,30.07,WNW,293,2.5,2.5,71,0.00,,,0.00,WUHU216HW,2013-02-03 02:28:00,
2013-02-02 20:33:00,39.6,31.0,30.07,WNW,293,2.2,2.5,71,0.00,,,0.00,WUHU216HW,2013-02-03 02:33:00,
2013-02-02 20:38:00,39.4,30.8,30.07,WNW,293,1.6,2.5,71,0.00,,,0.00,WUHU216HW,2013-02-03 02:38:00,
2013-02-02 20:43:00,38.9,30.6,30.07,WNW,293,1.3,2.2,72,0.00,,,0.00,WUHU216HW,2013-02-03 02:43:00,
2013-02-02 20:49:00,38.5,30.2,30.07,WNW,293,1.8,1.8,72,0.00,,,0.00,WUHU216HW,2013-02-03 02:49:00,
2013-02-02 20:54:00,38.5,30.2,30.06,WNW,293,0.9,1.8,72,0.00,,,0.00,WUHU216HW,2013-02-03 02:54:00,
2013-02-02 20:59:00,38.3,30.1,30.07,WNW,293,1.8,1.8,72,0.00,,,0.00,WUHU216HW,2013-02-03 02:59:00,
2013-02-02 21:05:00,38.2,30.2,30.07,WNW,293,1.1,1.8,73,0.00,,,0.00,WUHU216HW,2013-02-03 03:05:00,
2013-02-02 21:10:00,38.2,30.2,30.06,WNW,293,1.1,1.8,73,0.00,,,0.00,WUHU216HW,2013-02-03 03:10:00,
2013-02-02 21:15:00,38.0,30.1,30.07,West,270,1.8,2.2,73,0.00,,,0.00,WUHU216HW,2013-02-03 03:15:00,
2013-02-02 21:20:00,37.8,30.0,30.08,WNW,293,1.8,2.2,73,0.00,,,0.00,WUHU216HW,2013-02-03 03:20:00,
2013-02-02 21:25:00,38.2,30.2,30.07,West,270,2.5,2.5,73,0.00,,,0.00,WUHU216HW,2013-02-03 03:25:00,
2013-02-02 21:30:00,37.8,30.0,30.07,West,270,1.8,2.5,73,0.00,,,0.00,WUHU216HW,2013-02-03 03:30:00,
2013-02-02 21:35:00,37.8,30.0,30.07,West,270,1.3,1.8,73,0.00,,,0.00,WUHU216HW,2013-02-03 03:35:00,
2013-02-02 21:40:00,37.8,30.0,30.07,West,270,2.9,2.9,73,0.00,,,0.00,WUHU216HW,2013-02-03 03:40:00,
2013-02-02 21:45:00,37.4,29.9,30.08,West,270,3.4,3.4,74,0.00,,,0.00,WUHU216HW,2013-02-03 03:45:00,
2013-02-02 21:50:00,37.4,29.9,30.08,West,270,3.4,4.0,74,0.00,,,0.00,WUHU216HW,2013-02-03 03:50:00,
2013-02-02 21:55:00,37.4,29.6,30.08,West,270,5.1,5.1,73,0.00,,,0.00,WUHU216HW,2013-02-03 03:55:00,
2013-02-02 22:01:00,38.5,30.0,30.08,WNW,293,4.0,5.1,71,0.00,,,0.00,WUHU216HW,2013-02-03 04:01:00,
2013-02-02 22:06:00,38.5,30.0,30.08,WNW,293,4.3,4.7,71,0.00,,,0.00,WUHU216HW,2013-02-03 04:06:00,
2013-02-02 22:11:00,38.9,29.9,30.08,WNW,293,2.7,4.3,70,0.00,,,0.00,WUHU216HW,2013-02-03 04:11:00,
2013-02-02 22:16:00,38.5,30.0,30.08,WNW,293,3.4,4.3,71,0.00,,,0.00,WUHU216HW,2013-02-03 04:16:00,
2013-02-02 22:21:00,38.5,30.0,30.08,WNW,293,3.4,3.4,71,0.00,,,0.00,WUHU216HW,2013-02-03 04:21:00,
2013-02-02 22:26:00,38.3,29.8,30.09,WNW,293,3.4,3.4,71,0.00,,,0.00,WUHU216HW,2013-02-03 04:26:00,
2013-02-02 22:31:00,38.0,29.4,30.09,West,270,3.4,4.0,71,0.00,,,0.00,WUHU216HW,2013-02-03 04:31:00,
2013-02-02 22:36:00,37.8,29.6,30.09,WNW,293,2.5,4.0,72,0.00,,,0.00,WUHU216HW,2013-02-03 04:36:00,
2013-02-02 22:41:00,37.8,29.6,30.09,WNW,293,2.0,3.4,72,0.00,,,0.00,WUHU216HW,2013-02-03 04:41:00,
2013-02-02 22:46:00,37.4,29.3,30.09,West,270,2.5,2.5,72,0.00,,,0.00,WUHU216HW,2013-02-03 04:46:00,
2013-02-02 22:52:00,37.3,29.1,30.10,West,270,1.8,2.5,72,0.00,,,0.00,WUHU216HW,2013-02-03 04:52:00,
2013-02-02 22:57:00,37.1,29.3,30.10,West,270,2.9,2.9,73,0.00,,,0.00,WUHU216HW,2013-02-03 04:57:00,
2013-02-02 23:00:00,36.9,29.1,30.10,WNW,293,3.4,3.4,73,0.00,,,0.00,WUHU216HW,2013-02-03 05:00:00,
2013-02-02 23:01:00,36.9,29.1,30.10,WNW,293,3.4,3.4,73,0.00,,,0.00,WUHU216HW,2013-02-03 05:01:00,
2013-02-02 23:02:00,36.9,29.1,30.10,West,270,2.5,3.4,73,0.00,,,0.00,WUHU216HW,2013-02-03 05:02:00,
2013-02-02 23:07:00,36.9,29.1,30.10,West,270,2.9,3.4,73,0.00,,,0.00,WUHU216HW,2013-02-03 05:07:00,
2013-02-02 23:12:00,36.7,28.9,30.10,West,270,3.1,3.1,73,0.00,,,0.00,WUHU216HW,2013-02-03 05:12:00,
2013-02-02 23:17:00,36.5,28.7,30.11,West,270,4.3,4.3,73,0.00,,,0.00,WUHU216HW,2013-02-03 05:17:00,
2013-02-02 23:22:00,36.7,28.9,30.11,West,270,3.4,4.3,73,0.00,,,0.00,WUHU216HW,2013-02-03 05:22:00,
2013-02-02 23:27:00,36.5,28.7,30.11,WNW,293,4.3,4.3,73,0.00,,,0.00,WUHU216HW,2013-02-03 05:27:00,
2013-02-02 23:32:00,36.4,28.5,30.11,WNW,293,3.1,4.3,73,0.00,,,0.00,WUHU216HW,2013-02-03 05:32:00,
2013-02-02 23:38:00,36.4,28.5,30.12,West,270,4.3,4.3,73,0.00,,,0.00,WUHU216HW,2013-02-03 05:38:00,
2013-02-02 23:42:00,36.4,28.5,30.12,WNW,293,2.9,4.3,73,0.00,,,0.00,WUHU216HW,2013-02-03 05:42:00,
2013-02-02 23:48:00,36.4,28.5,30.12,West,270,2.7,4.0,73,0.00,,,0.00,WUHU216HW,2013-02-03 05:48:00,
2013-02-02 23:53:00,36.5,28.4,30.13,WNW,293,2.7,2.9,72,0.00,,,0.00,WUHU216HW,2013-02-03 05:53:00,
2013-02-02 23:58:00,36.7,28.5,30.13,WNW,293,2.2,2.7,72,0.00,,,0.00,WUHU216HW,2013-02-03 05:58:00,